Time,TemperatureF,DewpointF,PressureIn,WindDirection,WindDirectionDegrees,WindSpeedMPH,WindSpeedGustMPH,Humidity,HourlyPrecipIn,Conditions,Clouds,dailyrainin,SoftwareType,DateUTC
2013-03-14 00:11:00,59.2,53.0,30.18,WNW,293,1.0,2.0,81,0.00,,,0.00,weatherlink.com 1.10,2013-03-14 04:11:00,
2013-03-14 00:27:00,59.0,53.0,30.18,WNW,291,0.0,1.0,81,0.00,,,0.00,weatherlink.com 1.10,2013-03-14 04:27:00,
2013-03-14 00:42:00,58.7,53.0,30.18,WNW,291,1.0,2.0,82,0.00,,,0.00,weatherlink.com 1.10,2013-03-14 04:42:00,
2013-03-14 00:57:00,58.9,53.0,30.18,WNW,296,1.0,3.0,82,0.00,,,0.00,weatherlink.com 1.10,2013-03-14 04:57:00,
2013-03-14 01:12:00,59.1,53.0,30.18,West,281,2.0,4.0,81,0.00,,,0.00,weatherlink.com 1.10,2013-03-14 05:12:00,
2013-03-14 01:27:00,59.1,53.0,30.17,WNW,283,2.0,4.0,81,0.00,,,0.00,weatherlink.com 1.10,2013-03-14 05:27:00,
2013-03-14 01:42:00,58.9,53.0,30.18,WNW,282,5.0,9.0,82,0.00,,,0.00,weatherlink.com 1.10,2013-03-14 05:42:00,
2013-03-14 01:57:00,57.6,53.0,30.18,WNW,284,4.0,8.0,84,0.00,,,0.00,weatherlink.com 1.10,2013-03-14 05:57:00,
2013-03-14 02:12:00,57.0,52.0,30.18,WNW,301,6.0,10.0,84,0.00,,,0.00,weatherlink.com 1.10,2013-03-14 06:12:00,
2013-03-14 02:27:00,56.7,52.0,30.18,NW,309,4.0,10.0,83,0.00,,,0.00,weatherlink.com 1.10,2013-03-14 06:27:00,
2013-03-14 02:42:00,56.3,51.0,30.17,WNW,301,3.0,8.0,83,0.00,,,0.00,weatherlink.com 1.10,2013-03-14 06:42:00,
2013-03-14 02:57:00,56.1,51.0,30.16,WNW,283,3.0,7.0,84,0.00,,,0.00,weatherlink.com 1.10,2013-03-14 06:57:00,
2013-03-14 03:12:00,55.9,51.0,30.17,WNW,300,4.0,7.0,83,0.00,,,0.00,weatherlink.com 1.10,2013-03-14 07:12:00,
2013-03-14 03:27:00,55.6,51.0,30.17,NW,307,3.0,9.0,83,0.00,,,0.00,weatherlink.com 1.10,2013-03-14 07:27:00,
2013-03-14 03:42:00,55.2,50.0,30.17,WNW,300,3.0,9.0,83,0.00,,,0.00,weatherlink.com 1.10,2013-03-14 07:42:00,
2013-03-14 03:57:00,54.9,50.0,30.16,WNW,294,4.0,9.0,83,0.00,,,0.00,weatherlink.com 1.10,2013-03-14 07:57:00,
2013-03-14 04:12:00,54.6,50.0,30.16,WNW,291,4.0,6.0,83,0.00,,,0.00,weatherlink.com 1.10,2013-03-14 08:12:00,
2013-03-14 04:27:00,54.5,49.0,30.16,NW,317,2.0,8.0,82,0.00,,,0.00,weatherlink.com 1.10,2013-03-14 08:27:00,
2013-03-14 04:42:00,54.4,49.0,30.16,WNW,288,3.0,8.0,81,0.00,,,0.00,weatherlink.com 1.10,2013-03-14 08:42:00,
2013-03-14 04:57:00,54.0,48.0,30.16,West,278,3.0,11.0,80,0.00,,,0.00,weatherlink.com 1.10,2013-03-14 08:57:00,
2013-03-14 05:12:00,53.7,48.0,30.16,WNW,291,3.0,9.0,80,0.00,,,0.00,weatherlink.com 1.10,2013-03-14 09:12:00,
2013-03-14 05:27:00,53.4,47.0,30.16,NW,325,3.0,9.0,80,0.00,,,0.00,weatherlink.com 1.10,2013-03-14 09:27:00,
2013-03-14 05:42:00,53.3,47.0,30.16,NW,304,3.0,9.0,79,0.00,,,0.00,weatherlink.com 1.10,2013-03-14 09:42:00,
2013-03-14 05:57:00,53.3,47.0,30.17,West,273,3.0,7.0,78,0.00,,,0.00,weatherlink.com 1.10,2013-03-14 09:57:00,
2013-03-14 06:12:00,53.1,46.0,30.18,WNW,285,4.0,8.0,78,0.00,,,0.00,weatherlink.com 1.10,2013-03-14 10:12:00,
2013-03-14 06:27:00,53.4,46.0,30.18,South,188,5.0,9.0,76,0.00,,,0.00,weatherlink.com 1.10,2013-03-14 10:27:00,
2013-03-14 06:42:00,53.6,46.0,30.19,NNW,342,4.0,8.0,75,0.00,,,0.00,weatherlink.com 1.10,2013-03-14 10:42:00,
2013-03-14 06:57:00,53.8,45.0,30.19,NW,305,5.0,9.0,71,0.00,,,0.00,weatherlink.com 1.10,2013-03-14 10:57:00,
2013-03-14 07:13:00,54.0,44.0,30.20,NW,305,6.0,9.0,69,0.00,,,0.00,weatherlink.com 1.10,2013-03-14 11:13:00,
2013-03-14 07:28:00,53.8,43.0,30.21,NNW,332,2.0,10.0,67,0.00,,,0.00,weatherlink.com 1.10,2013-03-14 11:28:00,
2013-03-14 07:43:00,53.8,43.0,30.21,SW,228,4.0,10.0,66,0.00,,,0.00,weatherlink.com 1.10,2013-03-14 11:43:00,
2013-03-14 07:58:00,54.4,43.0,30.22,NNW,343,3.0,9.0,65,0.00,,,0.00,weatherlink.com 1.10,2013-03-14 11:58:00,
2013-03-14 08:13:00,55.2,43.0,30.22,WNW,293,3.0,11.0,63,0.00,,,0.00,weatherlink.com 1.10,2013-03-14 12:13:00,
2013-03-14 08:28:00,55.4,44.0,30.23,NNE,30,3.0,10.0,65,0.00,,,0.00,weatherlink.com 1.10,2013-03-14 12:28:00,
2013-03-14 08:43:00,55.7,45.0,30.24,WNW,302,3.0,9.0,68,0.00,,,0.00,weatherlink.com 1.10,2013-03-14 12:43:00,
2013-03-14 08:58:00,56.9,46.0,30.24,NW,304,5.0,9.0,68,0.00,,,0.00,weatherlink.com 1.10,2013-03-14 12:58:00,
2013-03-14 09:14:00,58.2,47.0,30.25,NW,323,2.0,10.0,67,0.00,,,0.00,weatherlink.com 1.10,2013-03-14 13:14:00,
2013-03-14 09:28:00,59.4,48.0,30.25,NNW,343,1.0,8.0,66,0.00,,,0.00,weatherlink.com 1.10,2013-03-14 13:28:00,
2013-03-14 09:43:00,60.4,48.0,30.25,NNW,339,6.0,9.0,63,0.00,,,0.00,weatherlink.com 1.10,2013-03-14 13:43:00,
2013-03-14 09:58:00,61.3,48.0,30.25,NW,325,3.0,11.0,63,0.00,,,0.00,weatherlink.com 1.10,2013-03-14 13:58:00,
2013-03-14 10:13:00,61.9,49.0,30.26,WNW,297,6.0,10.0,63,0.00,,,0.00,weatherlink.com 1.10,2013-03-14 14:13:00,
2013-03-14 10:28:00,62.6,49.0,30.26,North,349,8.0,8.0,62,0.00,,,0.00,weatherlink.com 1.10,2013-03-14 14:28:00,
2013-03-14 10:43:00,63.4,49.0,30.27,NNE,29,2.0,11.0,59,0.00,,,0.00,weatherlink.com 1.10,2013-03-14 14:43:00,
2013-03-14 10:58:00,64.1,48.0,30.26,WNW,300,2.0,8.0,57,0.00,,,0.00,weatherlink.com 1.10,2013-03-14 14:58:00,
2013-03-14 11:13:00,64.7,45.0,30.26,WNW,290,5.0,8.0,50,0.00,,,0.00,weatherlink.com 1.10,2013-03-14 15:13:00,
2013-03-14 11:28:00,65.2,46.0,30.26,WNW,300,3.0,10.0,50,0.00,,,0.00,weatherlink.com 1.10,2013-03-14 15:28:00,
2013-03-14 11:43:00,65.8,46.0,30.26,NNW,346,2.0,10.0,49,0.00,,,0.00,weatherlink.com 1.10,2013-03-14 15:43:00,
2013-03-14 11:58:00,65.7,46.0,30.26,NE,46,3.0,10.0,50,0.00,,,0.00,weatherlink.com 1.10,2013-03-14 15:58:00,
2013-03-14 12:13:00,65.8,46.0,30.26,NE,43,7.0,11.0,50,0.00,,,0.00,weatherlink.com 1.10,2013-03-14 16:13:00,
2013-03-14 12:28:00,66.4,49.0,30.26,ENE,57,6.0,10.0,54,0.00,,,0.00,weatherlink.com 1.10,2013-03-14 16:28:00,
2013-03-14 12:43:00,65.8,47.0,30.26,North,5,7.0,12.0,51,0.00,,,0.00,weatherlink.com 1.10,2013-03-14 16:43:00,
2013-03-14 12:58:00,66.3,48.0,30.25,WSW,248,4.0,11.0,52,0.00,,,0.00,weatherlink.com 1.10,2013-03-14 16:58:00,
2013-03-14 13:13:00,66.1,48.0,30.25,NNE,20,5.0,12.0,52,0.00,,,0.00,weatherlink.com 1.10,2013-03-14 17:13:00,
2013-03-14 13:28:00,66.1,47.0,30.25,NNW,338,5.0,13.0,50,0.00,,,0.00,weatherlink.com 1.10,2013-03-14 17:28:00,
2013-03-14 13:43:00,66.3,46.0,30.24,NW,311,11.0,12.0,48,0.00,,,0.00,weatherlink.com 1.10,2013-03-14 17:43:00,
2013-03-14 13:58:00,66.4,46.0,30.24,ENE,71,3.0,10.0,48,0.00,,,0.00,weatherlink.com 1.10,2013-03-14 17:58:00,
2013-03-14 14:13:00,66.4,45.0,30.23,NNE,20,6.0,8.0,47,0.00,,,0.00,weatherlink.com 1.10,2013-03-14 18:13:00,
2013-03-14 14:28:00,65.9,46.0,30.23,NNE,13,5.0,14.0,49,0.00,,,0.00,weatherlink.com 1.10,2013-03-14 18:28:00,
2013-03-14 14:43:00,66.0,46.0,30.22,North,356,7.0,9.0,48,0.00,,,0.00,weatherlink.com 1.10,2013-03-14 18:43:00,
2013-03-14 14:58:00,66.2,47.0,30.22,NE,36,4.0,13.0,50,0.00,,,0.00,weatherlink.com 1.10,2013-03-14 18:58:00,
2013-03-14 15:13:00,65.8,49.0,30.21,North,1,3.0,10.0,54,0.00,,,0.00,weatherlink.com 1.10,2013-03-14 19:13:00,
2013-03-14 15:28:00,65.7,47.0,30.21,NNE,25,6.0,11.0,51,0.00,,,0.00,weatherlink.com 1.10,2013-03-14 19:28:00,
2013-03-14 15:43:00,66.2,48.0,30.21,NW,323,2.0,10.0,53,0.00,,,0.00,weatherlink.com 1.10,2013-03-14 19:43:00,
2013-03-14 16:14:00,65.4,47.0,30.21,NNE,16,9.0,12.0,51,0.00,,,0.00,weatherlink.com 1.10,2013-03-14 20:14:00,
2013-03-14 16:29:00,65.1,47.0,30.21,North,5,6.0,11.0,52,0.00,,,0.00,weatherlink.com 1.10,2013-03-14 20:29:00,
2013-03-14 16:44:00,64.7,47.0,30.21,ENE,58,4.0,16.0,54,0.00,,,0.00,weatherlink.com 1.10,2013-03-14 20:44:00,
2013-03-14 16:59:00,64.5,48.0,30.21,NNE,20,3.0,13.0,55,0.00,,,0.00,weatherlink.com 1.10,2013-03-14 20:59:00,
2013-03-14 17:14:00,64.3,48.0,30.21,ENE,59,5.0,11.0,56,0.00,,,0.00,weatherlink.com 1.10,2013-03-14 21:14:00,
2013-03-14 17:29:00,63.6,47.0,30.22,North,5,5.0,13.0,56,0.00,,,0.00,weatherlink.com 1.10,2013-03-14 21:29:00,
2013-03-14 17:44:00,63.6,48.0,30.22,West,260,2.0,10.0,57,0.00,,,0.00,weatherlink.com 1.10,2013-03-14 21:44:00,
2013-03-14 17:59:00,63.2,49.0,30.22,NNE,25,5.0,12.0,61,0.00,,,0.00,weatherlink.com 1.10,2013-03-14 21:59:00,
2013-03-14 18:14:00,62.6,49.0,30.22,WNW,288,6.0,12.0,62,0.00,,,0.00,weatherlink.com 1.10,2013-03-14 22:14:00,
2013-03-14 18:29:00,62.1,48.0,30.23,NNW,333,5.0,13.0,61,0.00,,,0.00,weatherlink.com 1.10,2013-03-14 22:29:00,
2013-03-14 18:44:00,61.6,49.0,30.23,West,274,4.0,12.0,64,0.00,,,0.00,weatherlink.com 1.10,2013-03-14 22:44:00,
2013-03-14 18:59:00,60.8,49.0,30.23,WNW,290,5.0,12.0,66,0.00,,,0.00,weatherlink.com 1.10,2013-03-14 22:59:00,
2013-03-14 19:14:00,60.2,50.0,30.23,WNW,293,1.0,11.0,68,0.00,,,0.00,weatherlink.com 1.10,2013-03-14 23:14:00,
2013-03-14 19:29:00,59.5,49.0,30.24,North,351,2.0,9.0,69,0.00,,,0.00,weatherlink.com 1.10,2013-03-14 23:29:00,
2013-03-14 19:44:00,58.9,49.0,30.24,NNW,345,3.0,8.0,71,0.00,,,0.00,weatherlink.com 1.10,2013-03-14 23:44:00,
2013-03-14 19:59:00,58.7,49.0,30.24,NNE,19,3.0,8.0,71,0.00,,,0.00,weatherlink.com 1.10,2013-03-14 23:59:00,
2013-03-14 20:14:00,58.1,50.0,30.24,NW,307,5.0,6.0,74,0.00,,,0.00,weatherlink.com 1.10,2013-03-15 00:14:00,
2013-03-14 20:29:00,58.0,49.0,30.24,West,273,1.0,6.0,73,0.00,,,0.00,weatherlink.com 1.10,2013-03-15 00:29:00,
2013-03-14 20:44:00,57.5,49.0,30.25,NNW,332,1.0,7.0,74,0.00,,,0.00,weatherlink.com 1.10,2013-03-15 00:44:00,
2013-03-14 20:59:00,57.3,49.0,30.25,WSW,255,3.0,8.0,74,0.00,,,0.00,weatherlink.com 1.10,2013-03-15 00:59:00,
2013-03-14 21:14:00,57.0,49.0,30.25,NW,315,2.0,6.0,75,0.00,,,0.00,weatherlink.com 1.10,2013-03-15 01:14:00,
2013-03-14 21:29:00,56.9,49.0,30.25,WNW,302,2.0,7.0,76,0.00,,,0.00,weatherlink.com 1.10,2013-03-15 01:29:00,
2013-03-14 21:44:00,56.8,50.0,30.25,NNW,328,2.0,7.0,77,0.00,,,0.00,weatherlink.com 1.10,2013-03-15 01:44:00,
2013-03-14 21:59:00,56.6,50.0,30.26,WNW,291,3.0,7.0,78,0.00,,,0.00,weatherlink.com 1.10,2013-03-15 01:59:00,
2013-03-14 22:14:00,56.5,50.0,30.26,WNW,291,3.0,7.0,78,0.00,,,0.00,weatherlink.com 1.10,2013-03-15 02:14:00,
2013-03-14 22:29:00,56.4,50.0,30.26,WNW,285,3.0,7.0,79,0.00,,,0.00,weatherlink.com 1.10,2013-03-15 02:29:00,
2013-03-14 22:44:00,56.1,50.0,30.26,NW,308,3.0,5.0,80,0.00,,,0.00,weatherlink.com 1.10,2013-03-15 02:44:00,
2013-03-14 22:59:00,55.9,50.0,30.26,WNW,290,3.0,6.0,81,0.00,,,0.00,weatherlink.com 1.10,2013-03-15 02:59:00,
2013-03-14 23:14:00,55.8,50.0,30.26,West,281,6.0,6.0,82,0.00,,,0.00,weatherlink.com 1.10,2013-03-15 03:14:00,
2013-03-14 23:29:00,55.9,51.0,30.26,WNW,297,3.0,8.0,82,0.00,,,0.00,weatherlink.com 1.10,2013-03-15 03:29:00,
2013-03-14 23:44:00,55.9,51.0,30.27,West,281,2.0,7.0,82,0.00,,,0.00,weatherlink.com 1.10,2013-03-15 03:44:00,
2013-03-14 23:59:00,55.9,51.0,30.26,WNW,290,6.0,8.0,82,0.00,,,0.00,weatherlink.com 1.10,2013-03-15 03:59:00,